Location: Berua Church
(35.0423°N, 88.5987°W)
Time: 10:27:16
(UTC+00:00)

H-2A R/B - Pass Details

Date: 08 December 2019
Orbit: 501 x 541 km, 97.3° (Epoch: 19 January)

Event Time Altitude Azimuth Distance (km) Brightness Sun altitude
Rises 23:13:39 0° 159° (SSE) 2,611 6.3 -6.6°
Reaches altitude 10° 23:15:45 10° 155° (SSE) 1,723 5.3 -7.0°
Maximum altitude 23:19:24 57° 76° (ENE) 601 2.7 -7.7°
Drops below altitude 10° 23:23:02 10° 358° (N) 1,720 5.2 -8.4°
Sets 23:25:08 0° 354° (N) 2,605 6.1 -8.8°
